Saint Paul Island, AK

2:12 PM AKDT on April 21, 2018 (GMT -0800)
Saint Paul Island

Weather History for PASN - January, 2013

Change the Weather History Date:

Thursday, January 3, 2013

  Actual Average Record
Temperature  
Mean Temperature 25 °F 26 °F  
Max Temperature 31 °F 30 °F 43 °F (1980)
Min Temperature 18 °F 23 °F -1 °F (2000)
Degree Days  
Heating Degree Days 40 38  
Month to date heating degree days 125 114  
Since 1 July heating degree days 4978 4656  
Cooling Degree Days 0 0  
Month to date cooling degree days 0 0  
Year to date cooling degree days 0 0  
Moisture  
Dew Point 25 °F    
Average Humidity 95    
Maximum Humidity 100    
Minimum Humidity 86    
Precipitation  
Precipitation 0.03 in 0.06 in 0.63 in (1987)
Month to date precipitation 0.06 0.18  
Year to date precipitation 0.06 0.18  
Snow  
Snow 0.30 in 0.50 in - ()
Month to date snowfall 0.6 1.3  
Since 1 July snowfall 13.9 23.7  
Since 1 September snowfall 23.7  
Snow Depth 2.00 in    
Sea Level Pressure  
Sea Level Pressure 29.06 in    
Wind  
Wind Speed 7 mph (NW)    
Max Wind Speed 12 mph    
Max Gust Speed 13 mph    
Visibility 4 miles    
Events Fog , Snow    
T = Trace of Precipitation, MM = Missing Value Source: NWS Daily Summary

Daily Weather History Graph

Daily Weather History Graph

Search for Another Location

Airport or City:

Astronomy

Jan. 03, 2013 Rise Set
Actual Time 10:59 AM AKST 5:52 PM AKST
Civil Twilight 10:10 AM AKST 6:41 PM AKST
Nautical Twilight 9:19 AM AKST 7:31 PM AKST
Astronomical Twilight 8:32 AM AKST 8:18 PM AKST
Moon 12:57 AM AKST (1/3) 12:51 PM AKST (1/3)
Length of Visible Light 8h 31m
Length of Day
6h 53m
Waning Gibbous, 64% of the Moon is Illuminated
Jan 3
Waning Gibbous
Jan 4
Last Quarter
Jan 11
New
Jan 18
First Quarter
Jan 26
Full

Hourly Weather History & Observations

Time (AKST) Temp. Windchill Dew Point Humidity Pressure Visibility Wind Dir Wind Speed Gust Speed Precip Events Conditions
12:00 AM 24.8 °F 17.9 °F 24.8 °F 100% 29.01 in 1.2 mi NNE 5.8 mph - N/A   Mostly Cloudy
12:10 AM 23.0 °F 17.0 °F 23.0 °F 100% 29.01 in 0.8 mi NNE 4.6 mph - N/A   Mist
12:17 AM 21.2 °F 13.6 °F 21.2 °F 100% 29.01 in 1.0 mi North 5.8 mph - N/A   Mist
12:32 AM 21.2 °F 13.6 °F 21.2 °F 100% 29.01 in 2.0 mi North 5.8 mph - N/A   Scattered Clouds
12:44 AM 21.2 °F 13.6 °F 19.4 °F 93% 29.01 in 4.0 mi North 5.8 mph - N/A   Partly Cloudy
12:53 AM 21.0 °F 12.4 °F 19.9 °F 96% 29.02 in 1.8 mi North 6.9 mph - N/A   Scattered Clouds
12:56 AM 21.2 °F 11.7 °F 19.4 °F 93% 29.01 in 0.8 mi North 8.1 mph - N/A   Mist
1:04 AM 19.4 °F 9.5 °F 19.4 °F 100% 29.02 in 0.5 mi North 8.1 mph - N/A Fog Light Freezing Fog
1:13 AM 21.2 °F 11.7 °F 19.4 °F 93% 29.02 in 1.0 mi North 8.1 mph - N/A   Mist
1:24 AM 21.2 °F 12.6 °F 19.4 °F 93% 29.02 in 0.8 mi North 6.9 mph - N/A   Mist
1:32 AM 21.2 °F 13.6 °F 19.4 °F 93% 29.02 in 0.5 mi North 5.8 mph - N/A Fog Light Freezing Fog
1:43 AM 19.4 °F 10.4 °F 19.4 °F 100% 29.02 in 0.8 mi North 6.9 mph - N/A   Mist
1:53 AM 19.0 °F 10.0 °F 19.0 °F 100% 29.02 in 0.8 mi North 6.9 mph - N/A   Mist
1:57 AM 19.4 °F 9.5 °F 17.6 °F 93% 29.02 in 1.2 mi North 8.1 mph - N/A   Scattered Clouds
2:03 AM 19.4 °F 9.5 °F 19.4 °F 100% 29.02 in 3.0 mi North 8.1 mph - N/A   Partly Cloudy
2:53 AM 21.0 °F 12.4 °F 19.9 °F 96% 29.02 in 10.0 mi North 6.9 mph - N/A   Clear
3:53 AM 21.9 °F 13.4 °F 21.0 °F 96% 29.03 in 10.0 mi North 6.9 mph - N/A   Clear
4:53 AM 18.0 °F 11.1 °F 16.0 °F 92% 29.02 in 10.0 mi North 4.6 mph - N/A   Clear
5:14 AM 21.2 °F 11.7 °F 19.4 °F 93% 29.02 in 10.0 mi North 8.1 mph - N/A   Scattered Clouds
5:19 AM 23.0 °F 13.9 °F 21.2 °F 93% 29.02 in 2.5 mi NNW 8.1 mph - N/A   Mostly Cloudy
5:23 AM 24.8 °F 16.9 °F 21.2 °F 86% 29.02 in 1.0 mi NNW 6.9 mph - N/A   Mist
5:47 AM 24.8 °F 17.9 °F 23.0 °F 93% 29.03 in 0.8 mi NNW 5.8 mph - N/A   Mist
5:53 AM 24.1 °F 18.2 °F 23.0 °F 96% 29.03 in 0.5 mi NW 4.6 mph - N/A Fog Light Freezing Fog
6:08 AM 24.8 °F 19.1 °F 23.0 °F 93% 29.03 in 0.8 mi NNW 4.6 mph - N/A   Mist
6:28 AM 24.8 °F 16.9 °F 23.0 °F 93% 29.03 in 0.8 mi North 6.9 mph - N/A   Mist
6:37 AM 24.8 °F 16.1 °F 24.8 °F 100% 29.03 in 1.0 mi North 8.1 mph - N/A   Mist
6:53 AM 26.1 °F 17.6 °F 25.0 °F 96% 29.03 in 1.8 mi North 8.1 mph - N/A   Overcast
7:00 AM 26.6 °F 17.5 °F 24.8 °F 93% 29.03 in 2.5 mi North 9.2 mph - N/A   Overcast
7:17 AM 26.6 °F 17.5 °F 24.8 °F 93% 29.02 in 6.0 mi North 9.2 mph - N/A   Overcast
7:53 AM 27.0 °F 18.0 °F 26.1 °F 96% 29.04 in 8.0 mi NNW 9.2 mph - N/A   Overcast
8:53 AM 28.0 °F 20.8 °F 27.0 °F 96% 29.05 in 4.0 mi NNW 6.9 mph - N/A   Overcast
9:23 AM 28.4 °F 21.2 °F 26.6 °F 93% 29.04 in 10.0 mi NNW 6.9 mph - N/A   Overcast
9:53 AM 28.0 °F 20.0 °F 27.0 °F 96% 29.05 in 10.0 mi NW 8.1 mph - N/A   Overcast
10:21 AM 28.4 °F 22.2 °F 26.6 °F 93% 29.05 in 10.0 mi WNW 5.8 mph - N/A   Overcast
10:53 AM 28.9 °F 22.8 °F 28.0 °F 96% 29.07 in 10.0 mi WNW 5.8 mph - N/A   Overcast
11:40 AM 28.4 °F 23.3 °F 26.6 °F 93% 29.07 in 10.0 mi West 4.6 mph - N/A   Overcast
11:53 AM 28.9 °F 22.8 °F 27.0 °F 92% 29.08 in 10.0 mi West 5.8 mph - N/A   Overcast
12:20 PM 28.4 °F 23.3 °F 28.4 °F 100% 29.08 in 10.0 mi West 4.6 mph - N/A   Overcast
12:53 PM 30.0 °F 23.2 °F 28.0 °F 92% 29.09 in 10.0 mi WNW 6.9 mph - N/A   Overcast
1:00 PM 30.2 °F 24.3 °F 28.4 °F 93% 29.08 in 9.0 mi WNW 5.8 mph - 0.00 in Snow Light Snow
1:19 PM 30.2 °F 24.3 °F 28.4 °F 93% 29.09 in 2.5 mi WNW 5.8 mph - 0.00 in Snow Light Snow
1:34 PM 30.2 °F 23.4 °F 28.4 °F 93% 29.09 in 3.0 mi WNW 6.9 mph - 0.00 in Snow Light Snow
1:53 PM 30.0 °F 24.1 °F 28.9 °F 96% 29.09 in 3.0 mi WNW 5.8 mph - 0.00 in Snow Light Snow
2:26 PM 30.2 °F 23.4 °F 28.4 °F 93% 29.09 in 2.5 mi WNW 6.9 mph - 0.00 in Snow Light Snow
2:33 PM 30.2 °F 22.6 °F 28.4 °F 93% 29.09 in 3.0 mi WNW 8.1 mph - 0.00 in Snow Light Snow
2:53 PM 30.0 °F 23.2 °F 28.9 °F 96% 29.09 in 3.0 mi WNW 6.9 mph - 0.00 in Snow Light Snow
3:18 PM 30.2 °F 23.4 °F 28.4 °F 93% 29.09 in 2.5 mi WNW 6.9 mph - 0.00 in Snow Light Snow
3:42 PM 30.2 °F 23.4 °F 28.4 °F 93% 29.09 in 5.0 mi WNW 6.9 mph - 0.00 in Snow Light Snow
3:53 PM 30.0 °F 24.1 °F 30.0 °F 100% 29.10 in 6.0 mi West 5.8 mph - 0.00 in Snow Light Snow
4:53 PM 30.0 °F 24.1 °F 28.9 °F 96% 29.11 in 5.0 mi West 5.8 mph - 0.00 in Snow Light Snow
5:53 PM 30.0 °F 23.2 °F 28.9 °F 96% 29.11 in 4.0 mi West 6.9 mph - 0.01 in Snow Light Snow
6:53 PM 30.0 °F 25.2 °F 28.9 °F 96% 29.13 in 7.0 mi West 4.6 mph - 0.00 in Snow Light Snow
7:30 PM 30.2 °F 24.3 °F 28.4 °F 93% 29.13 in 5.0 mi West 5.8 mph - 0.00 in Snow Light Snow
7:37 PM 30.2 °F 24.3 °F 28.4 °F 93% 29.13 in 2.5 mi West 5.8 mph - 0.00 in Snow Light Snow
7:53 PM 30.9 °F 24.3 °F 28.9 °F 92% 29.13 in 2.5 mi West 6.9 mph - 0.01 in Snow Light Snow
8:03 PM 30.2 °F 22.6 °F 28.4 °F 93% 29.13 in 2.5 mi WSW 8.1 mph - 0.00 in Snow Light Snow
8:27 PM 30.2 °F 21.9 °F 28.4 °F 93% 29.14 in 4.0 mi West 9.2 mph - 0.01 in Snow Light Snow
8:42 PM 30.2 °F 21.9 °F 28.4 °F 93% 29.14 in 4.0 mi WSW 9.2 mph - 0.01 in Snow Light Snow
8:53 PM 30.9 °F 23.5 °F 28.9 °F 92% 29.15 in 4.0 mi WSW 8.1 mph - 0.01 in Snow Light Snow
9:53 PM 28.9 °F 21.1 °F 28.0 °F 96% 29.16 in 8.0 mi WSW 8.1 mph - 0.00 in Snow Light Snow
10:40 PM 28.4 °F 22.2 °F 28.4 °F 100% 29.15 in 9.0 mi SW 5.8 mph - 0.00 in   Overcast
10:53 PM 28.0 °F 20.8 °F 27.0 °F 96% 29.16 in 9.0 mi SW 6.9 mph - 0.00 in   Overcast
11:53 PM 28.9 °F 21.9 °F 27.0 °F 92% 29.16 in 8.0 mi SW 6.9 mph - N/A   Overcast